FALCON 9 DEB (45240 NORAD) Tracking and Keplerian Element Data

This shows tracking and keplerian element data for the satellite.

Feedback or suggestion? Click here.




ElementValue
Catalog45240
NameFALCON 9 DEB
Epoch Orbit576
Epoch Day82.49187892
Epoch Year2020
RAAN94.056
Inclination52.9854
Eccentricity0.0012331
Argument of Perigee168.5214
Mean Anonmoly191.6117
Mean Motion16.44139095
Decay Rate0.08574549
L11 45240U 20012BQ 20082.49187892 .08574549 12279-4 25140-3 0 9992
L22 45240 52.9854 94.0560 0012331 168.5214 191.6117 16.44139095 5767

Live tracking and technical data element details for FALCON 9 DEB (NORAD 45240). FALCON 9 DEB can be tracked NOW for your location showing map with azimuth and elevation plus other details from your city location.

Track the satellite on the map from your city or location and see movement details for azimuth, elevation, latitude, longitude, range, height, and movement on the map or in text.







IsCatalogInMostPopularTable: catalog: 45240, numindb: 22
Update: records affected: 1



GetName: 45240 FALCON 9 DEB

Hit Count: updated at: Mon, 13 Jul 2020 03:45:32 GMT